Time,TemperatureF,DewpointF,PressureIn,WindDirection,WindDirectionDegrees,WindSpeedMPH,WindSpeedGustMPH,Humidity,HourlyPrecipIn,Conditions,Clouds,dailyrainin,SoftwareType,DateUTC
2013-05-09 00:01:00,68.3,61.5,30.03,South,188,1.0,2.0,79,0.00,,,0.00,WeatherCatV1.15B25,2013-05-09 05:01:00,
2013-05-09 00:06:00,68.4,61.6,30.03,South,188,1.0,1.0,79,0.00,,,0.00,WeatherCatV1.15B25,2013-05-09 05:06:00,
2013-05-09 00:11:00,68.4,61.6,30.03,South,188,0.0,1.0,79,0.00,,,0.00,WeatherCatV1.15B25,2013-05-09 05:11:00,
2013-05-09 00:16:00,68.4,61.6,30.04,South,188,1.0,2.0,79,0.00,,,0.00,WeatherCatV1.15B25,2013-05-09 05:16:00,
2013-05-09 00:21:00,68.3,61.9,30.04,South,188,2.0,3.0,80,0.00,,,0.00,WeatherCatV1.15B25,2013-05-09 05:21:00,
2013-05-09 00:26:00,68.3,61.9,30.03,South,188,0.0,4.0,80,0.00,,,0.00,WeatherCatV1.15B25,2013-05-09 05:26:00,
2013-05-09 00:31:00,68.3,61.9,30.04,South,188,2.0,3.0,80,0.00,,,0.00,WeatherCatV1.15B25,2013-05-09 05:31:00,
2013-05-09 00:36:00,68.2,61.8,30.03,South,188,0.0,1.0,80,0.00,,,0.00,WeatherCatV1.15B25,2013-05-09 05:36:00,
2013-05-09 00:41:00,68.1,61.7,30.03,South,188,1.0,2.0,80,0.00,,,0.00,WeatherCatV1.15B25,2013-05-09 05:41:00,
2013-05-09 00:46:00,67.9,61.5,30.03,South,188,1.0,2.0,80,0.00,,,0.00,WeatherCatV1.15B25,2013-05-09 05:46:00,
2013-05-09 00:51:00,67.8,61.7,30.03,South,188,1.0,2.0,81,0.00,,,0.00,WeatherCatV1.15B25,2013-05-09 05:51:00,
2013-05-09 00:56:00,67.7,61.3,30.03,South,188,0.0,0.0,80,0.00,,,0.00,WeatherCatV1.15B25,2013-05-09 05:56:00,
2013-05-09 01:01:00,67.6,61.2,30.03,South,188,0.0,0.0,80,0.00,,,0.00,WeatherCatV1.15B25,2013-05-09 06:01:00,
2013-05-09 01:06:00,67.4,61.4,30.03,South,188,0.0,1.0,81,0.00,,,0.00,WeatherCatV1.15B25,2013-05-09 06:06:00,
2013-05-09 01:11:00,67.3,61.3,30.03,South,188,0.0,1.0,81,0.00,,,0.00,WeatherCatV1.15B25,2013-05-09 06:11:00,
2013-05-09 01:16:00,67.2,61.5,30.03,South,188,0.0,1.0,82,0.00,,,0.00,WeatherCatV1.15B25,2013-05-09 06:16:00,
2013-05-09 01:21:00,67.1,61.4,30.03,South,188,0.0,1.0,82,0.00,,,0.00,WeatherCatV1.15B25,2013-05-09 06:21:00,
2013-05-09 01:26:00,67.2,61.5,30.03,South,188,0.0,2.0,82,0.00,,,0.00,WeatherCatV1.15B25,2013-05-09 06:26:00,
2013-05-09 01:31:00,67.2,61.5,30.02,South,188,0.0,0.0,82,0.00,,,0.00,WeatherCatV1.15B25,2013-05-09 06:31:00,
2013-05-09 01:36:00,67.1,61.1,30.02,South,188,0.0,0.0,81,0.00,,,0.00,WeatherCatV1.15B25,2013-05-09 06:36:00,
2013-05-09 01:41:00,67.0,61.0,30.02,South,188,0.0,1.0,81,0.00,,,0.00,WeatherCatV1.15B25,2013-05-09 06:41:00,
2013-05-09 01:46:00,66.8,61.1,30.02,South,188,0.0,1.0,82,0.00,,,0.00,WeatherCatV1.15B25,2013-05-09 06:46:00,
2013-05-09 01:51:00,66.7,61.0,30.02,South,188,0.0,0.0,82,0.00,,,0.00,WeatherCatV1.15B25,2013-05-09 06:51:00,
2013-05-09 01:56:00,66.6,60.9,30.02,South,188,1.0,1.0,82,0.00,,,0.00,WeatherCatV1.15B25,2013-05-09 06:56:00,
2013-05-09 02:01:00,66.5,60.8,30.02,South,188,0.0,1.0,82,0.00,,,0.00,WeatherCatV1.15B25,2013-05-09 07:01:00,
2013-05-09 02:06:00,66.5,61.2,30.02,South,188,0.0,0.0,83,0.00,,,0.00,WeatherCatV1.15B25,2013-05-09 07:06:00,
2013-05-09 02:11:00,66.4,61.1,30.02,South,188,0.0,1.0,83,0.00,,,0.00,WeatherCatV1.15B25,2013-05-09 07:11:00,
2013-05-09 02:16:00,66.5,61.5,30.02,South,188,0.0,1.0,84,0.00,,,0.00,WeatherCatV1.15B25,2013-05-09 07:16:00,
2013-05-09 02:21:00,66.5,61.2,30.02,South,188,0.0,0.0,83,0.00,,,0.00,WeatherCatV1.15B25,2013-05-09 07:21:00,
2013-05-09 02:26:00,66.5,61.2,30.02,South,188,0.0,0.0,83,0.00,,,0.00,WeatherCatV1.15B25,2013-05-09 07:26:00,
2013-05-09 02:31:00,66.4,60.7,30.02,South,188,0.0,0.0,82,0.00,,,0.00,WeatherCatV1.15B25,2013-05-09 07:31:00,
2013-05-09 02:36:00,66.3,61.0,30.02,South,188,0.0,1.0,83,0.00,,,0.00,WeatherCatV1.15B25,2013-05-09 07:36:00,
2013-05-09 02:41:00,66.2,60.9,30.02,South,188,0.0,0.0,83,0.00,,,0.00,WeatherCatV1.15B25,2013-05-09 07:41:00,
2013-05-09 02:46:00,66.1,61.1,30.02,South,188,0.0,0.0,84,0.00,,,0.00,WeatherCatV1.15B25,2013-05-09 07:46:00,
2013-05-09 02:51:00,66.0,61.0,30.02,South,188,0.0,0.0,84,0.00,,,0.00,WeatherCatV1.15B25,2013-05-09 07:51:00,
2013-05-09 02:56:00,65.9,60.9,30.02,South,188,0.0,1.0,84,0.00,,,0.00,WeatherCatV1.15B25,2013-05-09 07:56:00,
2013-05-09 03:01:00,65.9,61.3,30.02,South,188,0.0,0.0,85,0.00,,,0.00,WeatherCatV1.15B25,2013-05-09 08:01:00,
2013-05-09 03:06:00,65.7,61.4,30.02,South,188,1.0,2.0,86,0.00,,,0.00,WeatherCatV1.15B25,2013-05-09 08:06:00,
2013-05-09 03:11:00,65.6,61.3,30.02,South,188,0.0,0.0,86,0.00,,,0.00,WeatherCatV1.15B25,2013-05-09 08:11:00,
2013-05-09 03:16:00,65.6,61.0,30.02,South,188,0.0,0.0,85,0.00,,,0.00,WeatherCatV1.15B25,2013-05-09 08:16:00,
2013-05-09 03:21:00,65.5,60.9,30.02,South,188,0.0,0.0,85,0.00,,,0.00,WeatherCatV1.15B25,2013-05-09 08:21:00,
2013-05-09 03:26:00,65.3,60.3,30.02,South,188,0.0,0.0,84,0.00,,,0.00,WeatherCatV1.15B25,2013-05-09 08:26:00,
2013-05-09 03:31:00,65.2,60.6,30.02,South,188,0.0,0.0,85,0.00,,,0.00,WeatherCatV1.15B25,2013-05-09 08:31:00,
2013-05-09 03:36:00,65.0,60.4,30.02,South,188,0.0,0.0,85,0.00,,,0.00,WeatherCatV1.15B25,2013-05-09 08:36:00,
2013-05-09 03:41:00,65.0,60.7,30.02,South,188,0.0,0.0,86,0.00,,,0.00,WeatherCatV1.15B25,2013-05-09 08:41:00,
2013-05-09 03:46:00,65.0,60.7,30.02,South,188,0.0,0.0,86,0.00,,,0.00,WeatherCatV1.15B25,2013-05-09 08:46:00,
2013-05-09 03:51:00,65.0,61.0,30.02,South,188,0.0,0.0,87,0.00,,,0.00,WeatherCatV1.15B25,2013-05-09 08:51:00,
2013-05-09 03:56:00,65.1,61.1,30.02,South,188,0.0,0.0,87,0.00,,,0.00,WeatherCatV1.15B25,2013-05-09 08:56:00,
2013-05-09 04:01:00,65.2,61.2,30.02,South,188,0.0,0.0,87,0.00,,,0.00,WeatherCatV1.15B25,2013-05-09 09:01:00,
2013-05-09 04:06:00,65.2,61.2,30.02,South,188,0.0,0.0,87,0.00,,,0.00,WeatherCatV1.15B25,2013-05-09 09:06:00,
2013-05-09 04:11:00,65.3,61.3,30.02,South,188,1.0,2.0,87,0.00,,,0.00,WeatherCatV1.15B25,2013-05-09 09:11:00,
2013-05-09 04:16:00,65.4,61.4,30.02,South,188,0.0,2.0,87,0.00,,,0.00,WeatherCatV1.15B25,2013-05-09 09:16:00,
2013-05-09 04:21:00,65.5,61.5,30.02,South,188,0.0,0.0,87,0.00,,,0.00,WeatherCatV1.15B25,2013-05-09 09:21:00,
2013-05-09 04:26:00,65.5,61.5,30.02,South,188,0.0,0.0,87,0.00,,,0.00,WeatherCatV1.15B25,2013-05-09 09:26:00,
2013-05-09 04:31:00,65.5,61.5,30.02,South,188,0.0,0.0,87,0.00,,,0.00,WeatherCatV1.15B25,2013-05-09 09:31:00,
2013-05-09 04:36:00,65.4,61.4,30.03,South,188,1.0,1.0,87,0.00,,,0.00,WeatherCatV1.15B25,2013-05-09 09:36:00,
2013-05-09 04:41:00,65.3,61.3,30.03,South,188,2.0,2.0,87,0.00,,,0.00,WeatherCatV1.15B25,2013-05-09 09:41:00,
2013-05-09 04:46:00,65.4,61.4,30.03,South,188,3.0,3.0,87,0.00,,,0.00,WeatherCatV1.15B25,2013-05-09 09:46:00,
2013-05-09 04:51:00,65.2,61.5,30.03,South,188,3.0,3.0,88,0.00,,,0.00,WeatherCatV1.15B25,2013-05-09 09:51:00,
2013-05-09 04:56:00,64.8,61.2,30.03,South,188,3.0,4.0,88,0.00,,,0.00,WeatherCatV1.15B25,2013-05-09 09:56:00,
2013-05-09 05:01:00,64.6,61.6,30.04,South,188,3.0,4.0,90,0.00,,,0.00,WeatherCatV1.15B25,2013-05-09 10:01:00,
2013-05-09 05:06:00,64.8,61.8,30.04,South,188,4.0,5.0,90,0.00,,,0.00,WeatherCatV1.15B25,2013-05-09 10:06:00,
2013-05-09 05:11:00,65.0,61.7,30.03,South,188,4.0,4.0,89,0.00,,,0.00,WeatherCatV1.15B25,2013-05-09 10:11:00,
2013-05-09 05:16:00,64.9,61.3,30.03,South,188,4.0,4.0,88,0.00,,,0.00,WeatherCatV1.15B25,2013-05-09 10:16:00,
2013-05-09 05:21:00,64.8,61.2,30.03,South,188,2.0,3.0,88,0.00,,,0.00,WeatherCatV1.15B25,2013-05-09 10:21:00,
2013-05-09 05:26:00,64.7,61.4,30.03,South,188,2.0,3.0,89,0.00,,,0.00,WeatherCatV1.15B25,2013-05-09 10:26:00,
2013-05-09 05:31:00,64.6,61.3,30.03,South,188,0.0,1.0,89,0.00,,,0.00,WeatherCatV1.15B25,2013-05-09 10:31:00,
2013-05-09 05:36:00,64.5,61.2,30.03,South,188,0.0,0.0,89,0.00,,,0.00,WeatherCatV1.15B25,2013-05-09 10:36:00,
2013-05-09 05:41:00,64.4,61.1,30.03,South,188,0.0,1.0,89,0.00,,,0.00,WeatherCatV1.15B25,2013-05-09 10:41:00,
2013-05-09 05:46:00,64.3,61.0,30.03,South,188,2.0,3.0,89,0.00,,,0.00,WeatherCatV1.15B25,2013-05-09 10:46:00,
2013-05-09 05:51:00,64.3,61.0,30.03,South,188,0.0,1.0,89,0.00,,,0.00,WeatherCatV1.15B25,2013-05-09 10:51:00,
2013-05-09 05:56:00,64.1,61.1,30.04,South,188,0.0,2.0,90,0.00,,,0.00,WeatherCatV1.15B25,2013-05-09 10:56:00,
2013-05-09 06:01:00,64.1,61.1,30.03,South,188,0.0,1.0,90,0.00,,,0.00,WeatherCatV1.15B25,2013-05-09 11:01:00,
2013-05-09 06:06:00,64.1,61.1,30.04,South,188,1.0,2.0,90,0.00,,,0.00,WeatherCatV1.15B25,2013-05-09 11:06:00,
2013-05-09 06:11:00,64.1,61.1,30.04,South,188,2.0,4.0,90,0.00,,,0.00,WeatherCatV1.15B25,2013-05-09 11:11:00,
2013-05-09 06:16:00,64.1,61.1,30.04,South,188,3.0,4.0,90,0.00,,,0.00,WeatherCatV1.15B25,2013-05-09 11:16:00,
2013-05-09 06:21:00,64.0,60.7,30.05,West,262,2.0,4.0,89,0.00,,,0.00,WeatherCatV1.15B25,2013-05-09 11:21:00,
2013-05-09 06:26:00,63.6,60.3,30.05,SSW,213,3.0,4.0,89,0.00,,,0.00,WeatherCatV1.15B25,2013-05-09 11:26:00,
2013-05-09 06:31:00,63.6,60.6,30.05,SSW,211,4.0,4.0,90,0.00,,,0.00,WeatherCatV1.15B25,2013-05-09 11:31:00,
2013-05-09 06:36:00,63.8,60.8,30.06,SSW,209,5.0,6.0,90,0.00,,,0.00,WeatherCatV1.15B25,2013-05-09 11:36:00,
2013-05-09 06:41:00,64.1,61.1,30.06,SSW,200,4.0,6.0,90,0.00,,,0.00,WeatherCatV1.15B25,2013-05-09 11:41:00,
2013-05-09 06:46:00,64.5,61.2,30.06,SSW,202,5.0,7.0,89,0.00,,,0.00,WeatherCatV1.15B25,2013-05-09 11:46:00,
2013-05-09 06:51:00,64.8,61.2,30.06,SSW,205,5.0,7.0,88,0.00,,,0.00,WeatherCatV1.15B25,2013-05-09 11:51:00,
2013-05-09 06:56:00,65.1,61.1,30.06,SSW,206,7.0,7.0,87,0.00,,,0.00,WeatherCatV1.15B25,2013-05-09 11:56:00,
2013-05-09 07:01:00,65.3,61.0,30.07,SSW,211,7.0,8.0,86,0.00,,,0.00,WeatherCatV1.15B25,2013-05-09 12:01:00,
2013-05-09 07:06:00,65.3,61.0,30.07,SW,215,6.0,8.0,86,0.00,,,0.00,WeatherCatV1.15B25,2013-05-09 12:06:00,
2013-05-09 07:11:00,65.4,61.1,30.07,SSW,209,5.0,7.0,86,0.00,,,0.00,WeatherCatV1.15B25,2013-05-09 12:11:00,
2013-05-09 07:16:00,65.6,61.3,30.07,SW,216,6.0,7.0,86,0.00,,,0.00,WeatherCatV1.15B25,2013-05-09 12:16:00,
2013-05-09 07:21:00,65.8,61.5,30.07,SSW,209,6.0,7.0,86,0.00,,,0.00,WeatherCatV1.15B25,2013-05-09 12:21:00,
2013-05-09 07:26:00,66.0,61.4,30.07,SW,217,7.0,8.0,85,0.00,,,0.00,WeatherCatV1.15B25,2013-05-09 12:26:00,
2013-05-09 07:31:00,66.1,61.5,30.07,SSW,212,8.0,8.0,85,0.00,,,0.00,WeatherCatV1.15B25,2013-05-09 12:31:00,
2013-05-09 07:36:00,66.1,61.5,30.07,SSW,210,7.0,9.0,85,0.00,,,0.00,WeatherCatV1.15B25,2013-05-09 12:36:00,
2013-05-09 07:41:00,66.3,61.3,30.07,SSW,207,7.0,9.0,84,0.00,,,0.00,WeatherCatV1.15B25,2013-05-09 12:41:00,
2013-05-09 07:46:00,66.6,61.9,30.07,SSW,209,7.0,9.0,85,0.00,,,0.00,WeatherCatV1.15B25,2013-05-09 12:46:00,
2013-05-09 07:51:00,66.8,61.8,30.07,SW,219,7.0,10.0,84,0.00,,,0.00,WeatherCatV1.15B25,2013-05-09 12:51:00,
2013-05-09 07:56:00,67.1,62.1,30.06,SSW,209,7.0,11.0,84,0.00,,,0.00,WeatherCatV1.15B25,2013-05-09 12:56:00,
2013-05-09 08:01:00,67.5,62.1,30.07,SSW,210,7.0,9.0,83,0.00,,,0.00,WeatherCatV1.15B25,2013-05-09 13:01:00,
2013-05-09 08:06:00,67.9,62.5,30.07,SSW,209,8.0,9.0,83,0.00,,,0.00,WeatherCatV1.15B25,2013-05-09 13:06:00,
2013-05-09 08:11:00,68.4,63.0,30.07,SW,223,10.0,11.0,83,0.00,,,0.00,WeatherCatV1.15B25,2013-05-09 13:11:00,
2013-05-09 08:16:00,68.8,63.1,30.07,SW,221,10.0,10.0,82,0.00,,,0.00,WeatherCatV1.15B25,2013-05-09 13:16:00,
2013-05-09 08:21:00,69.2,63.5,30.07,SW,219,7.0,10.0,82,0.00,,,0.00,WeatherCatV1.15B25,2013-05-09 13:21:00,
2013-05-09 08:26:00,69.6,63.5,30.07,SW,221,9.0,11.0,81,0.00,,,0.00,WeatherCatV1.15B25,2013-05-09 13:26:00,
2013-05-09 08:31:00,69.9,63.4,30.07,SW,221,7.0,10.0,80,0.00,,,0.00,WeatherCatV1.15B25,2013-05-09 13:31:00,
2013-05-09 08:36:00,70.1,63.3,30.07,SW,221,10.0,12.0,79,0.00,,,0.00,WeatherCatV1.15B25,2013-05-09 13:36:00,
2013-05-09 08:41:00,70.1,63.3,30.07,SW,223,10.0,12.0,79,0.00,,,0.00,WeatherCatV1.15B25,2013-05-09 13:41:00,
2013-05-09 08:46:00,70.1,63.6,30.07,SW,223,7.0,10.0,80,0.00,,,0.00,WeatherCatV1.15B25,2013-05-09 13:46:00,
2013-05-09 08:51:00,70.0,63.2,30.07,SSW,211,8.0,10.0,79,0.00,,,0.00,WeatherCatV1.15B25,2013-05-09 13:51:00,
2013-05-09 08:56:00,70.1,63.6,30.07,SW,214,8.0,9.0,80,0.00,,,0.00,WeatherCatV1.15B25,2013-05-09 13:56:00,
2013-05-09 09:01:00,70.1,63.6,30.07,SSW,208,6.0,9.0,80,0.00,,,0.00,WeatherCatV1.15B25,2013-05-09 14:01:00,
2013-05-09 09:06:00,70.0,63.2,30.07,SW,217,8.0,11.0,79,0.00,,,0.00,WeatherCatV1.15B25,2013-05-09 14:06:00,
2013-05-09 09:11:00,69.9,63.1,30.07,SW,218,12.0,12.0,79,0.00,,,0.00,WeatherCatV1.15B25,2013-05-09 14:11:00,
2013-05-09 09:16:00,70.0,63.2,30.08,SW,218,10.0,10.0,79,0.00,,,0.00,WeatherCatV1.15B25,2013-05-09 14:16:00,
2013-05-09 09:21:00,70.1,63.3,30.08,SW,221,8.0,9.0,79,0.00,,,0.00,WeatherCatV1.15B25,2013-05-09 14:21:00,
2013-05-09 09:26:00,70.2,63.4,30.08,SW,223,11.0,12.0,79,0.00,,,0.00,WeatherCatV1.15B25,2013-05-09 14:26:00,
2013-05-09 09:31:00,70.3,63.5,30.08,SSW,205,7.0,9.0,79,0.00,,,0.00,WeatherCatV1.15B25,2013-05-09 14:31:00,
2013-05-09 09:36:00,70.6,63.8,30.08,SSW,208,8.0,10.0,79,0.00,,,0.00,WeatherCatV1.15B25,2013-05-09 14:36:00,
2013-05-09 09:41:00,70.6,63.4,30.08,SW,216,9.0,12.0,78,0.00,,,0.00,WeatherCatV1.15B25,2013-05-09 14:41:00,
2013-05-09 09:46:00,70.7,63.5,30.09,SW,219,9.0,13.0,78,0.00,,,0.00,WeatherCatV1.15B25,2013-05-09 14:46:00,
2013-05-09 09:51:00,70.7,63.5,30.09,SSW,210,9.0,11.0,78,0.00,,,0.00,WeatherCatV1.15B25,2013-05-09 14:51:00,
2013-05-09 09:56:00,70.6,63.4,30.09,SW,234,8.0,12.0,78,0.00,,,0.00,WeatherCatV1.15B25,2013-05-09 14:56:00,
2013-05-09 10:01:00,70.6,63.4,30.09,SW,225,13.0,13.0,78,0.00,,,0.00,WeatherCatV1.15B25,2013-05-09 15:01:00,
2013-05-09 10:06:00,70.6,63.4,30.09,SSW,206,7.0,11.0,78,0.00,,,0.00,WeatherCatV1.15B25,2013-05-09 15:06:00,
2013-05-09 10:11:00,70.8,63.6,30.09,SW,219,11.0,13.0,78,0.00,,,0.00,WeatherCatV1.15B25,2013-05-09 15:11:00,
2013-05-09 10:16:00,71.2,64.0,30.09,SW,215,8.0,9.0,78,0.00,,,0.00,WeatherCatV1.15B25,2013-05-09 15:16:00,
2013-05-09 10:21:00,71.4,63.8,30.09,SSW,211,9.0,11.0,77,0.00,,,0.00,WeatherCatV1.15B25,2013-05-09 15:21:00,
2013-05-09 10:26:00,71.7,63.7,30.09,SSW,210,7.0,12.0,76,0.00,,,0.00,WeatherCatV1.15B25,2013-05-09 15:26:00,
2013-05-09 10:31:00,72.0,64.4,30.10,SSW,195,10.0,13.0,77,0.00,,,0.00,WeatherCatV1.15B25,2013-05-09 15:31:00,
2013-05-09 10:36:00,72.0,64.0,30.09,SW,233,10.0,13.0,76,0.00,,,0.00,WeatherCatV1.15B25,2013-05-09 15:36:00,
2013-05-09 10:41:00,72.1,64.1,30.10,SSW,209,10.0,14.0,76,0.00,,,0.00,WeatherCatV1.15B25,2013-05-09 15:41:00,
2013-05-09 10:46:00,72.0,64.0,30.10,SSW,213,12.0,12.0,76,0.00,,,0.00,WeatherCatV1.15B25,2013-05-09 15:46:00,
2013-05-09 10:51:00,71.8,64.2,30.10,SW,220,12.0,14.0,77,0.00,,,0.00,WeatherCatV1.15B25,2013-05-09 15:51:00,
2013-05-09 10:56:00,71.8,64.2,30.10,SSW,210,9.0,13.0,77,0.00,,,0.00,WeatherCatV1.15B25,2013-05-09 15:56:00,
2013-05-09 11:01:00,71.8,64.2,30.10,SW,221,7.0,13.0,77,0.00,,,0.00,WeatherCatV1.15B25,2013-05-09 16:01:00,
2013-05-09 11:06:00,72.0,64.4,30.10,SW,221,10.0,11.0,77,0.00,,,0.00,WeatherCatV1.15B25,2013-05-09 16:06:00,
2013-05-09 11:11:00,72.2,64.6,30.10,South,188,12.0,13.0,77,0.00,,,0.00,WeatherCatV1.15B25,2013-05-09 16:11:00,
2013-05-09 11:16:00,72.8,65.5,30.10,SW,228,8.0,11.0,78,0.00,,,0.00,WeatherCatV1.15B25,2013-05-09 16:16:00,
2013-05-09 11:21:00,73.1,65.1,30.10,SW,236,12.0,13.0,76,0.00,,,0.00,WeatherCatV1.15B25,2013-05-09 16:21:00,
2013-05-09 11:26:00,73.0,65.0,30.10,WSW,244,11.0,14.0,76,0.00,,,0.00,WeatherCatV1.15B25,2013-05-09 16:26:00,
2013-05-09 11:31:00,73.4,65.4,30.10,SW,215,8.0,11.0,76,0.00,,,0.00,WeatherCatV1.15B25,2013-05-09 16:31:00,
2013-05-09 11:36:00,73.6,65.6,30.10,SW,231,11.0,12.0,76,0.00,,,0.00,WeatherCatV1.15B25,2013-05-09 16:36:00,
2013-05-09 11:41:00,73.9,65.8,30.11,WSW,238,7.0,12.0,76,0.00,,,0.00,WeatherCatV1.15B25,2013-05-09 16:41:00,
2013-05-09 11:46:00,74.4,65.2,30.10,SW,215,13.0,17.0,73,0.00,,,0.00,WeatherCatV1.15B25,2013-05-09 16:46:00,
2013-05-09 11:51:00,74.5,65.3,30.10,SW,221,11.0,15.0,73,0.00,,,0.00,WeatherCatV1.15B25,2013-05-09 16:51:00,
2013-05-09 11:56:00,74.9,65.6,30.10,SW,231,11.0,11.0,73,0.00,,,0.00,WeatherCatV1.15B25,2013-05-09 16:56:00,
2013-05-09 12:01:00,75.2,65.5,30.10,SSW,199,8.0,11.0,72,0.00,,,0.00,WeatherCatV1.15B25,2013-05-09 17:01:00,
2013-05-09 12:06:00,75.5,64.6,30.09,SSW,199,9.0,13.0,69,0.00,,,0.00,WeatherCatV1.15B25,2013-05-09 17:06:00,
2013-05-09 12:11:00,75.7,66.0,30.09,SSW,205,7.0,13.0,72,0.00,,,0.00,WeatherCatV1.15B25,2013-05-09 17:11:00,
2013-05-09 12:16:00,76.6,65.6,30.09,South,187,9.0,15.0,69,0.00,,,0.00,WeatherCatV1.15B25,2013-05-09 17:16:00,
2013-05-09 12:21:00,76.7,64.9,30.08,SW,236,12.0,15.0,67,0.00,,,0.00,WeatherCatV1.15B25,2013-05-09 17:21:00,
2013-05-09 12:26:00,77.3,65.5,30.08,SSW,198,11.0,13.0,67,0.00,,,0.00,WeatherCatV1.15B25,2013-05-09 17:26:00,
2013-05-09 12:31:00,77.3,65.5,30.08,SSW,192,12.0,14.0,67,0.00,,,0.00,WeatherCatV1.15B25,2013-05-09 17:31:00,
2013-05-09 12:36:00,77.1,66.1,30.08,South,188,12.0,14.0,69,0.00,,,0.00,WeatherCatV1.15B25,2013-05-09 17:36:00,
2013-05-09 12:41:00,77.4,65.1,30.08,SSW,212,7.0,14.0,66,0.00,,,0.00,WeatherCatV1.15B25,2013-05-09 17:41:00,
2013-05-09 12:46:00,77.7,65.4,30.07,SSW,200,13.0,16.0,66,0.00,,,0.00,WeatherCatV1.15B25,2013-05-09 17:46:00,
2013-05-09 12:51:00,78.1,64.5,30.07,SSW,210,15.0,15.0,63,0.00,,,0.00,WeatherCatV1.15B25,2013-05-09 17:51:00,
2013-05-09 12:55:00,77.9,63.8,30.07,SSW,209,12.0,15.0,62,0.00,,,0.00,WeatherCatV1.15B25,2013-05-09 17:55:00,
2013-05-09 13:00:00,77.9,64.7,30.06,SSW,209,16.0,16.0,64,0.00,,,0.00,WeatherCatV1.15B25,2013-05-09 18:00:00,
2013-05-09 13:05:00,78.0,65.3,30.06,South,190,13.0,14.0,65,0.00,,,0.00,WeatherCatV1.15B25,2013-05-09 18:05:00,
2013-05-09 13:10:00,78.4,64.7,30.05,SSW,206,17.0,17.0,63,0.00,,,0.00,WeatherCatV1.15B25,2013-05-09 18:10:00,
2013-05-09 13:15:00,78.5,64.8,30.05,SSW,193,8.0,11.0,63,0.00,,,0.00,WeatherCatV1.15B25,2013-05-09 18:15:00,
2013-05-09 13:20:00,78.9,63.8,30.05,SSW,198,11.0,17.0,60,0.00,,,0.00,WeatherCatV1.15B25,2013-05-09 18:20:00,
2013-05-09 13:25:00,79.0,64.4,30.04,SSW,195,11.0,16.0,61,0.00,,,0.00,WeatherCatV1.15B25,2013-05-09 18:25:00,
2013-05-09 13:30:00,79.2,65.0,30.04,SSW,197,15.0,22.0,62,0.00,,,0.00,WeatherCatV1.15B25,2013-05-09 18:30:00,
2013-05-09 13:35:00,79.0,62.9,30.04,South,188,18.0,20.0,58,0.00,,,0.00,WeatherCatV1.15B25,2013-05-09 18:35:00,
2013-05-09 13:40:00,79.3,63.2,30.04,SSW,205,19.0,20.0,58,0.00,,,0.00,WeatherCatV1.15B25,2013-05-09 18:40:00,
2013-05-09 13:45:00,79.6,63.5,30.04,SW,221,15.0,18.0,58,0.00,,,0.00,WeatherCatV1.15B25,2013-05-09 18:45:00,
2013-05-09 13:50:00,79.7,63.6,30.04,SSW,199,11.0,25.0,58,0.00,,,0.00,WeatherCatV1.15B25,2013-05-09 18:50:00,
2013-05-09 13:55:00,79.6,62.5,30.04,SSW,205,19.0,20.0,56,0.00,,,0.00,WeatherCatV1.15B25,2013-05-09 18:55:00,
2013-05-09 14:00:00,80.1,63.5,30.04,SSW,206,16.0,22.0,57,0.00,,,0.00,WeatherCatV1.15B25,2013-05-09 19:00:00,
2013-05-09 14:05:00,80.1,62.4,30.04,SW,217,17.0,20.0,55,0.00,,,0.00,WeatherCatV1.15B25,2013-05-09 19:05:00,
2013-05-09 14:10:00,80.4,63.2,30.04,SSW,192,16.0,20.0,56,0.00,,,0.00,WeatherCatV1.15B25,2013-05-09 19:10:00,
2013-05-09 14:15:00,80.0,63.4,30.04,SSW,200,14.0,21.0,57,0.00,,,0.00,WeatherCatV1.15B25,2013-05-09 19:15:00,
2013-05-09 14:20:00,80.0,63.4,30.03,SW,219,18.0,18.0,57,0.00,,,0.00,WeatherCatV1.15B25,2013-05-09 19:20:00,
2013-05-09 14:25:00,79.9,63.3,30.02,South,184,16.0,18.0,57,0.00,,,0.00,WeatherCatV1.15B25,2013-05-09 19:25:00,
2013-05-09 14:30:00,79.9,64.7,30.02,South,191,10.0,14.0,60,0.00,,,0.00,WeatherCatV1.15B25,2013-05-09 19:30:00,
2013-05-09 14:35:00,79.7,65.0,30.01,SSW,194,8.0,15.0,61,0.00,,,0.00,WeatherCatV1.15B25,2013-05-09 19:35:00,
2013-05-09 14:40:00,79.6,63.5,30.01,South,183,12.0,22.0,58,0.00,,,0.00,WeatherCatV1.15B25,2013-05-09 19:40:00,
2013-05-09 14:45:00,79.5,64.4,30.01,South,178,13.0,21.0,60,0.00,,,0.00,WeatherCatV1.15B25,2013-05-09 19:45:00,
2013-05-09 14:50:00,79.8,64.7,30.00,SSW,193,16.0,18.0,60,0.00,,,0.00,WeatherCatV1.15B25,2013-05-09 19:50:00,
2013-05-09 14:55:00,79.8,64.7,30.00,South,182,17.0,21.0,60,0.00,,,0.00,WeatherCatV1.15B25,2013-05-09 19:55:00,
2013-05-09 15:00:00,79.3,63.7,29.99,SSW,200,17.0,17.0,59,0.00,,,0.00,WeatherCatV1.15B25,2013-05-09 20:00:00,
2013-05-09 15:05:00,79.1,64.0,29.99,South,182,12.0,21.0,60,0.00,,,0.00,WeatherCatV1.15B25,2013-05-09 20:05:00,
2013-05-09 15:10:00,79.0,64.4,29.99,South,180,9.0,18.0,61,0.00,,,0.00,WeatherCatV1.15B25,2013-05-09 20:10:00,
2013-05-09 15:15:00,79.3,65.1,29.99,South,173,12.0,16.0,62,0.00,,,0.00,WeatherCatV1.15B25,2013-05-09 20:15:00,
2013-05-09 15:20:00,79.1,63.0,29.99,SSW,197,12.0,20.0,58,0.00,,,0.00,WeatherCatV1.15B25,2013-05-09 20:20:00,
2013-05-09 15:25:00,79.1,63.5,30.00,SSW,205,11.0,21.0,59,0.00,,,0.00,WeatherCatV1.15B25,2013-05-09 20:25:00,
2013-05-09 15:30:00,79.3,64.2,30.00,SSW,208,17.0,17.0,60,0.00,,,0.00,WeatherCatV1.15B25,2013-05-09 20:30:00,
2013-05-09 15:35:00,79.5,64.4,30.00,South,184,14.0,19.0,60,0.00,,,0.00,WeatherCatV1.15B25,2013-05-09 20:35:00,
2013-05-09 15:40:00,79.5,63.9,30.00,SSE,153,15.0,20.0,59,0.00,,,0.00,WeatherCatV1.15B25,2013-05-09 20:40:00,
2013-05-09 15:45:00,79.6,64.0,30.00,SSW,205,11.0,19.0,59,0.00,,,0.00,WeatherCatV1.15B25,2013-05-09 20:45:00,
2013-05-09 15:50:00,79.6,64.0,29.99,SSW,197,11.0,20.0,59,0.00,,,0.00,WeatherCatV1.15B25,2013-05-09 20:50:00,
2013-05-09 15:55:00,79.2,64.1,29.99,SSW,195,11.0,20.0,60,0.00,,,0.00,WeatherCatV1.15B25,2013-05-09 20:55:00,
2013-05-09 16:00:00,79.1,64.0,29.99,South,182,12.0,20.0,60,0.00,,,0.00,WeatherCatV1.15B25,2013-05-09 21:00:00,
2013-05-09 16:05:00,79.1,64.9,29.99,SSW,192,15.0,19.0,62,0.00,,,0.00,WeatherCatV1.15B25,2013-05-09 21:05:00,
2013-05-09 16:10:00,79.0,64.8,29.99,South,176,13.0,14.0,62,0.00,,,0.00,WeatherCatV1.15B25,2013-05-09 21:10:00,
2013-05-09 16:15:00,79.0,63.9,29.98,South,178,17.0,18.0,60,0.00,,,0.00,WeatherCatV1.15B25,2013-05-09 21:15:00,
2013-05-09 16:21:00,79.0,63.9,29.99,SSW,202,10.0,18.0,60,0.00,,,0.00,WeatherCatV1.15B25,2013-05-09 21:21:00,
2013-05-09 16:26:00,79.2,62.6,29.99,SSW,205,16.0,17.0,57,0.00,,,0.00,WeatherCatV1.15B25,2013-05-09 21:26:00,
2013-05-09 16:31:00,79.3,64.2,29.99,SSW,196,18.0,22.0,60,0.00,,,0.00,WeatherCatV1.15B25,2013-05-09 21:31:00,
2013-05-09 16:36:00,79.1,64.5,29.99,South,189,13.0,14.0,61,0.00,,,0.00,WeatherCatV1.15B25,2013-05-09 21:36:00,
2013-05-09 16:41:00,79.2,63.6,29.99,SSW,192,13.0,16.0,59,0.00,,,0.00,WeatherCatV1.15B25,2013-05-09 21:41:00,
2013-05-09 16:46:00,79.4,62.8,29.99,SSW,200,17.0,17.0,57,0.00,,,0.00,WeatherCatV1.15B25,2013-05-09 21:46:00,
2013-05-09 16:51:00,79.5,63.4,29.99,SSW,202,9.0,17.0,58,0.00,,,0.00,WeatherCatV1.15B25,2013-05-09 21:51:00,
2013-05-09 16:56:00,79.4,62.8,29.99,SSW,206,17.0,18.0,57,0.00,,,0.00,WeatherCatV1.15B25,2013-05-09 21:56:00,
2013-05-09 17:01:00,79.5,62.9,29.98,SSW,197,10.0,17.0,57,0.00,,,0.00,WeatherCatV1.15B25,2013-05-09 22:01:00,
2013-05-09 17:06:00,79.6,63.0,29.98,SSW,192,8.0,17.0,57,0.00,,,0.00,WeatherCatV1.15B25,2013-05-09 22:06:00,
2013-05-09 17:11:00,79.7,62.6,29.98,South,187,16.0,19.0,56,0.00,,,0.00,WeatherCatV1.15B25,2013-05-09 22:11:00,
2013-05-09 17:16:00,79.9,61.7,29.98,SSW,213,14.0,18.0,54,0.00,,,0.00,WeatherCatV1.15B25,2013-05-09 22:16:00,
2013-05-09 17:21:00,80.0,62.4,29.98,SSW,197,11.0,18.0,55,0.00,,,0.00,WeatherCatV1.15B25,2013-05-09 22:21:00,
2013-05-09 17:26:00,80.0,62.9,29.98,SSW,206,9.0,15.0,56,0.00,,,0.00,WeatherCatV1.15B25,2013-05-09 22:26:00,
2013-05-09 17:31:00,80.1,63.5,29.97,SSW,194,18.0,18.0,57,0.00,,,0.00,WeatherCatV1.15B25,2013-05-09 22:31:00,
2013-05-09 17:36:00,80.0,61.8,29.97,SW,221,11.0,15.0,54,0.00,,,0.00,WeatherCatV1.15B25,2013-05-09 22:36:00,
2013-05-09 17:41:00,80.0,63.4,29.97,SSW,204,11.0,14.0,57,0.00,,,0.00,WeatherCatV1.15B25,2013-05-09 22:41:00,
2013-05-09 17:46:00,80.0,61.3,29.98,SSW,206,15.0,19.0,53,0.00,,,0.00,WeatherCatV1.15B25,2013-05-09 22:46:00,
2013-05-09 17:51:00,79.9,61.7,29.98,SSW,207,11.0,13.0,54,0.00,,,0.00,WeatherCatV1.15B25,2013-05-09 22:51:00,
2013-05-09 17:56:00,79.8,61.7,29.98,SSW,202,11.0,16.0,54,0.00,,,0.00,WeatherCatV1.15B25,2013-05-09 22:56:00,
2013-05-09 18:01:00,79.7,61.6,29.98,SW,225,13.0,16.0,54,0.00,,,0.00,WeatherCatV1.15B25,2013-05-09 23:01:00,
2013-05-09 18:06:00,79.5,61.9,29.98,SSW,213,12.0,14.0,55,0.00,,,0.00,WeatherCatV1.15B25,2013-05-09 23:06:00,
2013-05-09 18:11:00,79.3,61.7,29.98,South,191,10.0,15.0,55,0.00,,,0.00,WeatherCatV1.15B25,2013-05-09 23:11:00,
2013-05-09 18:16:00,79.2,61.6,29.98,SW,215,10.0,13.0,55,0.00,,,0.00,WeatherCatV1.15B25,2013-05-09 23:16:00,
2013-05-09 18:21:00,79.0,62.4,29.98,SW,217,11.0,12.0,57,0.00,,,0.00,WeatherCatV1.15B25,2013-05-09 23:21:00,
2013-05-09 18:26:00,78.8,62.3,29.98,South,181,15.0,15.0,57,0.00,,,0.00,WeatherCatV1.15B25,2013-05-09 23:26:00,
2013-05-09 18:31:00,78.7,62.7,29.98,SSW,208,10.0,11.0,58,0.00,,,0.00,WeatherCatV1.15B25,2013-05-09 23:31:00,
2013-05-09 18:36:00,78.6,62.6,29.97,SSW,213,7.0,11.0,58,0.00,,,0.00,WeatherCatV1.15B25,2013-05-09 23:36:00,
2013-05-09 18:41:00,78.6,62.6,29.98,SSW,195,9.0,13.0,58,0.00,,,0.00,WeatherCatV1.15B25,2013-05-09 23:41:00,
2013-05-09 18:46:00,78.5,62.5,29.97,SSW,211,9.0,12.0,58,0.00,,,0.00,WeatherCatV1.15B25,2013-05-09 23:46:00,
2013-05-09 18:51:00,78.4,62.9,29.98,SSW,194,7.0,9.0,59,0.00,,,0.00,WeatherCatV1.15B25,2013-05-09 23:51:00,
2013-05-09 18:56:00,78.4,62.9,29.98,SSW,204,7.0,10.0,59,0.00,,,0.00,WeatherCatV1.15B25,2013-05-09 23:56:00,
2013-05-09 19:01:00,78.4,62.9,29.98,SSW,194,8.0,11.0,59,0.00,,,0.00,WeatherCatV1.15B25,2013-05-10 00:01:00,
2013-05-09 19:06:00,78.3,63.2,29.98,SSW,205,7.0,8.0,60,0.00,,,0.00,WeatherCatV1.15B25,2013-05-10 00:06:00,
2013-05-09 19:11:00,78.1,63.1,29.98,SW,217,7.0,7.0,60,0.00,,,0.00,WeatherCatV1.15B25,2013-05-10 00:11:00,
2013-05-09 19:16:00,78.1,62.6,29.98,SSW,202,7.0,9.0,59,0.00,,,0.00,WeatherCatV1.15B25,2013-05-10 00:16:00,
2013-05-09 19:21:00,77.9,62.9,29.98,SSW,206,7.0,7.0,60,0.00,,,0.00,WeatherCatV1.15B25,2013-05-10 00:21:00,
2013-05-09 19:26:00,77.7,63.6,29.99,South,191,4.0,7.0,62,0.00,,,0.00,WeatherCatV1.15B25,2013-05-10 00:26:00,
2013-05-09 19:31:00,77.3,63.7,29.99,SSW,196,6.0,6.0,63,0.00,,,0.00,WeatherCatV1.15B25,2013-05-10 00:31:00,
2013-05-09 19:36:00,77.0,64.3,29.99,SSW,194,3.0,4.0,65,0.00,,,0.00,WeatherCatV1.15B25,2013-05-10 00:36:00,
2013-05-09 19:41:00,76.7,64.0,29.99,SSW,194,4.0,4.0,65,0.00,,,0.00,WeatherCatV1.15B25,2013-05-10 00:41:00,
2013-05-09 19:46:00,76.5,64.3,29.99,SSW,192,4.0,5.0,66,0.00,,,0.00,WeatherCatV1.15B25,2013-05-10 00:46:00,
2013-05-09 19:51:00,76.4,64.2,29.99,South,188,6.0,6.0,66,0.00,,,0.00,WeatherCatV1.15B25,2013-05-10 00:51:00,
2013-05-09 19:56:00,76.3,64.9,29.99,South,182,5.0,6.0,68,0.00,,,0.00,WeatherCatV1.15B25,2013-05-10 00:56:00,
2013-05-09 20:01:00,76.2,64.8,29.99,South,184,3.0,6.0,68,0.00,,,0.00,WeatherCatV1.15B25,2013-05-10 01:01:00,
2013-05-09 20:06:00,76.1,64.3,29.98,South,184,2.0,4.0,67,0.00,,,0.00,WeatherCatV1.15B25,2013-05-10 01:06:00,
2013-05-09 20:11:00,76.0,64.2,29.98,South,184,1.0,6.0,67,0.00,,,0.00,WeatherCatV1.15B25,2013-05-10 01:11:00,
2013-05-09 20:16:00,75.9,64.6,29.98,SSW,192,6.0,7.0,68,0.00,,,0.00,WeatherCatV1.15B25,2013-05-10 01:16:00,
2013-05-09 20:21:00,75.8,64.5,29.98,South,180,5.0,6.0,68,0.00,,,0.00,WeatherCatV1.15B25,2013-05-10 01:21:00,
2013-05-09 20:26:00,75.8,64.9,29.98,South,183,5.0,6.0,69,0.00,,,0.00,WeatherCatV1.15B25,2013-05-10 01:26:00,
2013-05-09 20:31:00,75.5,65.0,29.98,South,188,3.0,4.0,70,0.00,,,0.00,WeatherCatV1.15B25,2013-05-10 01:31:00,
2013-05-09 20:36:00,75.3,65.2,29.99,South,188,4.0,4.0,71,0.00,,,0.00,WeatherCatV1.15B25,2013-05-10 01:36:00,
2013-05-09 20:41:00,75.2,65.1,29.99,South,182,5.0,7.0,71,0.00,,,0.00,WeatherCatV1.15B25,2013-05-10 01:41:00,
2013-05-09 20:46:00,75.2,64.7,29.99,South,182,6.0,7.0,70,0.00,,,0.00,WeatherCatV1.15B25,2013-05-10 01:46:00,
2013-05-09 20:51:00,75.2,64.3,29.99,South,183,5.0,7.0,69,0.00,,,0.00,WeatherCatV1.15B25,2013-05-10 01:51:00,
2013-05-09 20:56:00,75.2,64.7,29.98,South,180,5.0,7.0,70,0.00,,,0.00,WeatherCatV1.15B25,2013-05-10 01:56:00,
2013-05-09 21:01:00,75.1,64.6,29.98,South,169,3.0,6.0,70,0.00,,,0.00,WeatherCatV1.15B25,2013-05-10 02:01:00,
2013-05-09 21:06:00,75.1,64.6,29.98,South,171,4.0,7.0,70,0.00,,,0.00,WeatherCatV1.15B25,2013-05-10 02:06:00,
2013-05-09 21:11:00,75.0,64.5,29.98,South,171,4.0,6.0,70,0.00,,,0.00,WeatherCatV1.15B25,2013-05-10 02:11:00,
2013-05-09 21:16:00,74.9,64.8,29.98,South,187,3.0,7.0,71,0.00,,,0.00,WeatherCatV1.15B25,2013-05-10 02:16:00,
2013-05-09 21:21:00,74.8,64.8,29.98,South,181,5.0,7.0,71,0.00,,,0.00,WeatherCatV1.15B25,2013-05-10 02:21:00,
2013-05-09 21:26:00,74.7,64.7,29.98,South,184,5.0,7.0,71,0.00,,,0.00,WeatherCatV1.15B25,2013-05-10 02:26:00,
2013-05-09 21:31:00,74.6,64.6,29.98,South,178,4.0,6.0,71,0.00,,,0.00,WeatherCatV1.15B25,2013-05-10 02:31:00,
2013-05-09 21:36:00,74.5,64.9,29.98,South,189,5.0,7.0,72,0.00,,,0.00,WeatherCatV1.15B25,2013-05-10 02:36:00,
2013-05-09 21:41:00,74.3,65.1,29.99,South,180,6.0,6.0,73,0.00,,,0.00,WeatherCatV1.15B25,2013-05-10 02:41:00,
2013-05-09 21:46:00,74.2,65.0,29.99,South,176,5.0,7.0,73,0.00,,,0.00,WeatherCatV1.15B25,2013-05-10 02:46:00,
2013-05-09 21:51:00,74.2,64.6,29.99,South,183,5.0,7.0,72,0.00,,,0.00,WeatherCatV1.15B25,2013-05-10 02:51:00,
2013-05-09 21:56:00,74.2,65.0,29.99,South,188,5.0,5.0,73,0.00,,,0.00,WeatherCatV1.15B25,2013-05-10 02:56:00,
2013-05-09 22:01:00,74.1,64.9,29.99,South,188,3.0,6.0,73,0.00,,,0.00,WeatherCatV1.15B25,2013-05-10 03:01:00,
2013-05-09 22:06:00,74.1,64.9,29.98,South,188,4.0,4.0,73,0.00,,,0.00,WeatherCatV1.15B25,2013-05-10 03:06:00,
2013-05-09 22:11:00,74.0,65.2,29.98,South,178,4.0,5.0,74,0.00,,,0.00,WeatherCatV1.15B25,2013-05-10 03:11:00,
2013-05-09 22:16:00,73.9,65.1,29.98,South,182,5.0,6.0,74,0.00,,,0.00,WeatherCatV1.15B25,2013-05-10 03:16:00,
2013-05-09 22:21:00,73.8,65.0,29.98,South,171,4.0,6.0,74,0.00,,,0.00,WeatherCatV1.15B25,2013-05-10 03:21:00,
2013-05-09 22:26:00,73.7,65.3,29.98,South,176,4.0,5.0,75,0.00,,,0.00,WeatherCatV1.15B25,2013-05-10 03:26:00,
2013-05-09 22:31:00,73.5,65.1,29.98,South,186,4.0,5.0,75,0.00,,,0.00,WeatherCatV1.15B25,2013-05-10 03:31:00,
2013-05-09 22:36:00,73.3,65.3,29.98,South,179,2.0,4.0,76,0.00,,,0.00,WeatherCatV1.15B25,2013-05-10 03:36:00,
2013-05-09 22:41:00,73.2,65.2,29.99,South,178,3.0,4.0,76,0.00,,,0.00,WeatherCatV1.15B25,2013-05-10 03:41:00,
2013-05-09 22:46:00,73.0,65.0,29.99,South,172,3.0,4.0,76,0.00,,,0.00,WeatherCatV1.15B25,2013-05-10 03:46:00,
2013-05-09 22:51:00,72.9,65.3,29.99,South,177,4.0,5.0,77,0.00,,,0.00,WeatherCatV1.15B25,2013-05-10 03:51:00,
2013-05-09 22:56:00,72.9,65.3,29.98,South,177,2.0,4.0,77,0.00,,,0.00,WeatherCatV1.15B25,2013-05-10 03:56:00,
2013-05-09 23:01:00,72.8,65.2,29.98,South,177,1.0,3.0,77,0.00,,,0.00,WeatherCatV1.15B25,2013-05-10 04:01:00,
2013-05-09 23:06:00,72.8,65.5,29.98,South,177,3.0,3.0,78,0.00,,,0.00,WeatherCatV1.15B25,2013-05-10 04:06:00,
2013-05-09 23:11:00,72.8,65.5,29.98,South,177,2.0,4.0,78,0.00,,,0.00,WeatherCatV1.15B25,2013-05-10 04:11:00,
2013-05-09 23:16:00,72.7,65.8,29.99,South,177,5.0,5.0,79,0.00,,,0.00,WeatherCatV1.15B25,2013-05-10 04:16:00,
2013-05-09 23:21:00,72.3,66.1,30.00,SW,215,15.0,16.0,81,1.08,,,0.06,WeatherCatV1.15B25,2013-05-10 04:21:00,
2013-05-09 23:25:00,71.0,65.9,30.00,SW,219,9.0,17.0,84,0.75,,,0.14,WeatherCatV1.15B25,2013-05-10 04:25:00,
2013-05-09 23:30:00,70.4,66.0,30.01,SW,215,7.0,10.0,86,0.17,,,0.15,WeatherCatV1.15B25,2013-05-10 04:30:00,
2013-05-09 23:34:00,70.2,66.5,30.01,SW,217,12.0,12.0,88,0.29,,,0.18,WeatherCatV1.15B25,2013-05-10 04:34:00,
2013-05-09 23:40:00,69.6,65.9,30.01,SSW,207,12.0,12.0,88,0.62,,,0.27,WeatherCatV1.15B25,2013-05-10 04:40:00,
2013-05-09 23:45:00,69.4,65.4,30.00,SSW,194,11.0,14.0,87,0.17,,,0.28,WeatherCatV1.15B25,2013-05-10 04:45:00,
2013-05-09 23:50:00,69.8,64.4,30.00,SSW,206,18.0,21.0,83,0.07,,,0.28,WeatherCatV1.15B25,2013-05-10 04:50:00,
2013-05-09 23:54:00,69.1,63.0,30.00,SW,220,15.0,21.0,81,0.05,,,0.29,WeatherCatV1.15B25,2013-05-10 04:54:00,
2013-05-09 23:59:00,68.1,63.1,30.00,SSW,213,8.0,13.0,84,0.05,,,0.29,WeatherCatV1.15B25,2013-05-10 04:59:00,